Find OneWeb SL0548

NORAD ID: 56050 Int'l Des: 2023-043 Owner: ONEWEBN Country: UK Constellation: oneweb operational
LEOCIRCULARPOLARONEWEB_TYPE

リアルタイム位置

3D地球を読み込み中...

OneWeb SL0548について

説明を読み込み中...

次回通過

Passes for default location (London). Set your location on the main map for personalized predictions.

高度履歴

Loading altitude history...

軌道要素

1 56050U 23043E 26105.88262076 -.00000035 00000-0 -12422-3 0 9995
2 56050 87.9062 241.1479 0002147 112.3319 247.8039 13.16596055150765
Epoch: Apr 15, 2026 • Age: 11 hours

現在のステータス

高度 1203.3 km
速度 7.26 km/s
衛星直下点 41.69°N, 86.64°W
打ち上げ日 Mar 26, 2023
運用期間 3 years
タイプ internet

技術仕様

分類 Payload
質量 148.00 kg
乾燥質量 140.00 kg
総質量 148.00 kg
長さ 1.30 m
直径 1.00 m
スパン 5.00 m
形状 Trapezoid+2 pan
製造者 ONEWUS
バスタイプ ARROW
フェーズステータス In Orbit
所有者/国 ONEWEBN/UK

Most Searched